This is the latest recevied weather packets stored in our database for station/object OK0BH-6. If no packets are shown the sender has not sent any weather packets the latest 10 day(s).
| Time | Temp. | Humidity | Pressure | Rain* | Wind** | Luminosity | Snow |
|---|---|---|---|---|---|---|---|
| 1787742414 | 21.11° C | 47% | 1020.1 hPa | - | - | - | - |
| 1787742310 | 21.11° C | 47% | 1020.1 hPa | - | - | - | - |
| 1787741735 | 20.56° C | 48% | 1020 hPa | - | - | - | - |
| 1787741161 | 20.56° C | 47% | 1020.1 hPa | - | - | - | - |
| 1787740586 | 20.56° C | 48% | 1020.1 hPa | - | - | - | - |
| 1787740011 | 20.56° C | 47% | 1020 hPa | - | - | - | - |
| 1787739436 | 20.56° C | 47% | 1020.1 hPa | - | - | - | - |
| 1787738861 | 20.56° C | 48% | 1020.2 hPa | - | - | - | - |
| 1787738286 | 20.56° C | 48% | 1020.1 hPa | - | - | - | - |
| 1787737711 | 20° C | 48% | 1020.1 hPa | - | - | - | - |
| 1787737136 | 20° C | 48% | 1020.2 hPa | - | - | - | - |
| 1787736562 | 19.44° C | 49% | 1020.3 hPa | - | - | - | - |
| 1787735987 | 19.44° C | 49% | 1020.2 hPa | - | - | - | - |
| 1787735412 | 18.89° C | 49% | 1020.2 hPa | - | - | - | - |
| 1787734837 | 18.33° C | 49% | 1020 hPa | - | - | - | - |
| 1787734262 | 18.33° C | 49% | 1020 hPa | - | - | - | - |
| 1787733687 | 17.78° C | 50% | 1020 hPa | - | - | - | - |
| 1787733112 | 17.22° C | 50% | 1019.9 hPa | - | - | - | - |
| 1787732537 | 17.22° C | 50% | 1019.7 hPa | - | - | - | - |
| 1787731963 | 17.22° C | 49% | 1019.7 hPa | - | - | - | - |
| 1787731388 | 17.22° C | 49% | 1019.5 hPa | - | - | - | - |
| 1787730813 | 17.22° C | 49% | 1019.4 hPa | - | - | - | - |
| 1787730238 | 17.22° C | 49% | 1019.3 hPa | - | - | - | - |
| 1787729663 | 17.22° C | 49% | 1019.3 hPa | - | - | - | - |
| 1787729088 | 17.78° C | 48% | 1019.3 hPa | - | - | - | - |
* Rain since midnight (hover to see other rain measurements)
** Current wind speed in m/s (hover to see current wind gust speed)